www.pogodaiklimat.ru

Погода и климат >> Архив погоды >> Россия >> Ставропольский край >> Кисловодск


АРХИВ ПОГОДЫ в Кисловодске

Время (UTC), дата Ветер
(напр.,м/с)
 
Видим.   Явления Облачность Т
(С)
Тd
(С)
f
(%)
Тe
(С)
Тes
(С)
Комфортность P
(гПа)
Po
(гПа)
Тmin
(С)
Tmax
(С)
R
(мм)
R24
(мм)
S
(см)
03 17.03 штиль 0 10 км 10/10 600 м
[Sc]
+2.1 +1.6 96 +1 +1 по сезону 1009.0 899.0 +2.0 1
06 17.03 ЮВ 2 10 км 10/10 600 м
[Sc]
+3.8 +1.9 87 +1 +1 по сезону 1007.7 898.4
09 17.03 ЮВ 2 10 км 9/9 600 м
[Cb cap]
+6.4 +1.0 68 +4 +5 по сезону 1006.6 898.4
12 17.03 С 1 4000 м слаб. дождь 10/0 600 м
[As op]
+3.6 +2.6 93 +2 +3 по сезону 1010.0 900.3
15 17.03 штиль 0 4000 м слаб. ливневой снег {дождь} 10/10 600 м
[Cb cap]
+0.2 -0.3 96 -1 -1 по сезону 1015.2 903.7 +6.4 6
18 17.03 штиль 0 10 км {ливн. осадки, дождь} 10/10 600 м
[Sc]
+0.8 +0.3 96 -1 -1 по сезону 1017.3 905.8
21 17.03 штиль 0 10 км 10/10 600 м
[Sc]
+0.9 +0.5 97 -0 -0 по сезону 1018.6 907.0
00 18.03 штиль 0 4000 м слаб. ливневой снег 10/10 600 м
[Cb cap]
-0.2 -0.6 97 -2 -2 по сезону 1020.8 908.5
03 18.03 штиль 0 4000 м слаб. снег 10/0 600 м
[As op]
-0.5 -0.9 97 -2 -2 по сезону 1022.1 909.6 -0.5 5 3
06 18.03 штиль 0 1000 м ливневой снег 10/10 300 м
[Cb cap]
+0.5 -0.2 95 -1 -1 по сезону 1023.7 911.3 -0.6
09 18.03 штиль 0 4000 м слаб. ливневой снег 10/10 300 м
[Cb cap]
+2.7 -1.1 76 +2 +2 по сезону 1023.3 911.8
12 18.03 штиль 0 10 км {ливн. осадки} 10/10 600 м
[Cb cap]
+2.9 -0.9 76 +2 +2 по сезону 1023.8 912.4
15 18.03 ЮВ 2 10 км 9/6 600 м
[Sc diur, vesp Ci fib]
+2.5 -1.5 75 -0 -0 по сезону 1024.8 913.1 +3.7 4
18 18.03 ЮВ 3 10 км 10/3 600 м
[Sc Ci fib]
+1.3 -1.8 80 -3 -3 по сезону 1026.4 914.1
21 18.03 Ю 2 10 км 10/0
[Ci fib]
-0.1 -2.9 81 -4 -4 по сезону 1026.5 913.6
00 19.03 Ю 2 10 км 10/0
[Ci fib]
-2.6 -3.6 93 -7 -7 прохладно 1027.8 913.8
03 19.03 СЗ 1 10 км 6/0
[Ci fib]
-2.3 -4.6 84 -4 -4 по сезону 1027.5 913.6 -2.6
06 19.03 С 1 10 км ясно +2.8 -3.8 62 +2 +8 по сезону 1026.0 914.3
09 19.03 Ю 5-11
{11}
10 км 3/3 1000 м
[Sc]
+5.2 -1.5 62 +1 +5 по сезону 1024.4 913.7
12 19.03 ЮВ 3
{11}
10 км 8/0
[Ci]
+7.8 -1.7 51 +6 +10 по сезону 1022.2 912.7
15 19.03 ЮВ 3
{10}
10 км 8/0
[Ci fib]
+4.8 -0.1 71 +2 +2 по сезону 1023.7 913.0 +8.3
18 19.03 Ю 3
{10}
10 км ясно +3.2 -0.4 77 -1 -1 по сезону 1024.8 913.4
21 19.03 Ю 2 10 км ясно +1.4 -0.9 85 -2 -2 по сезону 1025.0 912.8
00 20.03 ЮЗ 1 10 км ясно -1.3 -2.4 92 -4 -4 по сезону 1025.0 911.8
03 20.03 штиль 0 2000 м дымка ясно -1.7 -2.3 96 -3 -3 по сезону 1025.0 911.6 -2.4
06 20.03 СЗ 1 10 км ясно +1.1 -0.1 92 -1 +6 по сезону 1023.9 911.8 -2.9
09 20.03 С 1 10 км ясно +11.1 +2.1 54 +11 +25 опасность
простуды
1018.5 910.7
12 20.03 Ю 4 10 км ясно +12.7 -1.5 37 +11 +16 тепло 1017.0 909.8
15 20.03 ЮВ 3 10 км ясно +7.6 +1.7 66 +5 +5 по сезону 1020.0 910.8 +13.0
18 20.03 Ю 3 10 км ясно +3.4 +0.4 81 -0 -0 по сезону 1022.7 911.6
21 20.03 Ю 1 10 км ясно +1.1 -1.8 81 -1 -1 по сезону 1023.0 911.0
00 21.03 Ю 2 10 км ясно -0.8 -2.9 86 -5 -5 по сезону 1023.5 910.7
03 21.03 Ю 2 10 км ясно -0.9 -4.3 78 -5 -5 прохладно 1024.2 911.2 -1.4
06 21.03 С 1 10 км ясно +8.2 -0.0 56 +8 +14 тепло 1020.9 911.8
09 21.03 С 3 10 км 9/9 1000 м
[Cb cap]
+11.4 -0.7 43 +10 +11 тепло 1019.3 911.5
12 21.03 С 1 10 км 10/10 600 м
[Cb cap]
+8.9 +0.3 55 +9 +9 тепло 1020.1 911.3
15 21.03 З 2 10 км 10/10 600 м
[Cb cap]
+6.1 +0.5 67 +4 +4 по сезону 1022.2 912.2 +12.3
18 21.03 С 1 10 км 10/10 600 м
[Sc]
+4.1 +1.0 80 +3 +3 по сезону 1024.3 913.3
21 21.03 З 1 10 км 10/10 600 м
[Sc]
+3.2 +0.8 84 +2 +2 по сезону 1024.3 913.0
00 22.03 З 2 10 км {дождь} 10/10 600 м
[Sc]
+2.0 +0.9 92 -1 -1 по сезону 1024.3 912.6
03 22.03 штиль 0 10 км 10/10 600 м
[Sc]
+1.3 +0.5 94 0 0 по сезону 1024.3 912.2 +1.2 0.3
06 22.03 штиль 0 4000 м слаб. ливневой снег 10/10 600 м
[Cb cap]
+1.3 +0.6 95 0 0 по сезону 1024.2 912.1 +0.7
09 22.03 З 1 4000 м слаб. ливневой снег 9/9 600 м
[Cb cap]
+1.1 -0.8 87 -1 +1 прохладно 1024.3 912.1
12 22.03 З 4 10 км {ливн. осадки} 9/9 600 м
[Cb cap]
+2.9 -2.6 67 -2 -1 очень
холодно
1021.8 910.5
15 22.03 З 2 10 км 10/10 600 м
[Sc]
+3.4 -2.8 64 +1 +1 по сезону 1020.3 909.4 +3.4 4
18 22.03 Ю 1 10 км 10/10 600 м
[Sc]
+2.0 -0.4 84 0 0 по сезону 1021.2 909.7
21 22.03 Ю 2 10 км 10/5 600 м
[Sc Ci fib]
+0.9 -2.0 81 -2 -2 по сезону 1019.4 907.7
00 23.03 Ю 3 10 км 8/1 600 м
[Sc Ci fib]
0.0 -2.9 81 -5 -5 прохладно 1017.1 905.3
03 23.03 ЮЗ 2 10 км 9/9 600 м
[Sc]
+0.8 -3.1 75 -2 -2 по сезону 1014.4 903.1 -0.3
06 23.03 СЗ 1 10 км 10/6 600 м
[Sc Ac und]
+3.8 -2.2 65 +3 +4 по сезону 1013.7 903.6
09 23.03 СЗ 1 10 км в посл. час крупа {ливн. осадки} 10/10
[Cb cap]
+0.2 -2.9 80 -2 -2 холодно 1015.0 903.5
12 23.03 С 1 10 км слаб. ливневой снег 10/10 600 м
[Cb cap]
-0.3 -2.0 88 -2 -2 очень
холодно
1014.2 902.5
15 23.03 СЗ 1 10 км слаб. ливневой снег 10/10 600 м
[Cb cap]
-1.3 -3.7 84 -3 -3 холодно 1015.4 903.2 +3.9 2
18 23.03 СЗ 1 10 км {ливн. осадки} 10/10 600 м
[Cb cap]
-1.7 -6.1 72 -4 -4 холодно 1016.9 904.4
21 23.03 штиль 0 10 км слаб. ливневой снег 10/10 600 м
[Cb cap]
-3.0 -4.6 89 -4 -4 прохладно 1017.8 904.7
00 24.03 Ю 1 10 км {ливн. осадки} 10/4 600 м
[Sc Ac und]
-2.9 -4.9 86 -5 -5 прохладно 1017.4 904.3

 

Местоположение метеостанции Кисловодск (Ставропольский край, Россия): широта 43.90 долгота 42.72 высота над уровнем моря 943 м.

В архиве по умолчанию представлена погода в Кисловодске за последнюю неделю. Архивные данные за месяц целиком и за предыдущие месяцы, начиная с января 2011 года, Вы можете получить, выбрав интересующий диапазон дат из раскрывающегося списка и нажав кнопку "Ввод!".


*Определитесь, кто Вы:
робот инопланетянин человек

Внимание! Время в таблицах - всемирное. Для получения местного времени необходимо прибавить поправку, которая равна 3 ч.

Смотрите также архив погоды в соседних городах и на ближайших метеорологических станциях:

Погода в Шаджатмазе (Карачаево-Черкессия, Россия) (19 км)
Погода в Минеральных Водах (Ставропольский край, Россия) (47 км)
Погода в Тырныаузе (Кабардино-Балкария, Россия) (60 км)
Погода в Черкесске (Карачаево-Черкессия, Россия) (63 км)
Погода в Георгиевске (Ставропольский край, Россия) (64 км)
Погода в Архызе (Карачаево-Черкессия, Россия) (71 км)
Погода на Леднике Гарабаши (Карачаево-Черкессия, Россия) (73 км)
Погода в Терсколе (Кабардино-Балкария, Россия) (74 км)
Погода в Чегете (Кабардино-Балкария, Россия) (76 км)
Погода в Нальчике (Кабардино-Балкария, Россия) (84 км)

Пояснения к столбцам:

Ветер - указаны скорость ветра в м/с - средняя за 10 мин, порывы в срок и между сроками (в фигурных скобках) и направление, откуда дует ветер: С - северный, СВ - северо-восточный, В - восточный, ЮВ - юго-восточный, Ю - южный, ЮЗ - юго-западный, З - западный, СЗ - северо-западный.
Видимость - горизонтальная дальность видимости в метрах или километрах. При видимости от 1 до 10 км при отсутствии осадков обычно наблюдается дымка, при ухудшении видимости до 1 км и менее - туман. В сухую погоду видимость может ухудшаться дымом, пылью или мглою.
Явления - указаны атмосферные явления, наблюдавшиеся в срок или в последний час перед сроком; фигурными скобками обозначены явления, наблюдавшиеся между сроками (за 1-3 часа до срока); квадратными скобками обозначены град или гололедные отложения с указанием их диаметра в мм.
Облачность - указаны через наклонную черту общая и нижняя облачность в баллах и высота нижней границы облаков в метрах; квадратными скобками обозначены формы облаков: Ci - перистые, Cs - перисто-слоистые, Cc - перисто-кучевые, Ac - высококучевые, As - высокослоистые, Sc - слоисто-кучевые, Ns - слоисто-дождевые, Cu - кучевые, Cb - кучево-дождевые. Подробнее классификацию облаков см. в Атласе облаков (PDF).
T - Температура воздуха - температура, измеренная на высоте 2 м над землей.
Td - Температура точки росы - температура, при понижении до которой содержащийся в воздухе водяной пар достигнет насыщения.
f - Относительная влажность воздуха - влажноcть воздуха, измеренная на высоте 2 м над землей.
Te - Эффективная температура - температура, которую ощущает одетый по сезону человек в тени. Характеристика душности погоды. При расчете учитывается влияние влажности воздуха и скорости ветра на теплоощущения человека.
Tes - Эффективная температура на солнце - температура, которую ощущает человек, с поправкой на солнечный нагрев. Характеристика знойности погоды. Зависит от высоты солнца над горизонтом, облачности и скорости ветра. Ночью, в пасмурную погоду, а также при ветре 12 м/с и более поправка равна нулю.
P - Атмосферное давление - приведенное к уровню моря атмосферное давление.
Po - Атмосферное давление - измеренное на уровне метеостанции атмосферное давление.
Tmin - Минимальная температура - минимум температуры воздуха на высоте 2 м над землей.
Tmax - Максимальная температура - максимум температуры воздуха на высоте 2 м над землей.
R - Количество осадков - Количество выпавших осадков за период времени, мм. При наведении курсора мыши на число - период времени, за который выпало указанное количество осадков.
R24 - Количество осадков - Количество выпавших осадков за 24 часа, мм.
S - Снежный покров - Высота снежного покрова, см. При наведении курсора мыши на число - состояние снежного покрова и степень покрытия местности в баллах.